Regional Weather Roundup
Issued by NWS Midland/Odessa, TX

Home | Current Version | Previous Version | Text Only | Print | Product List | Glossary On
Versions: 1 2 3 4 5 6 7 8 9 10 11 12 13 14 15 16 17 18 19 20 21 22 23 24 25 26 27 28 29 30 31 32 33 34 35 36 37 38 39 40 41 42 43 44 45 46 47 48 49 50
000
ASUS44 KMAF 281510
RWRMAF
MIDLAND AREA WEATHER ROUNDUP
NATIONAL WEATHER SERVICE MIDLAND TX
1000 AM CDT FRI APR 28 2017

...IN SOUTHWEST TEXAS AND SOUTHEAST NEW MEXICO...

CITY           SKY/WX    TMP DP  RH WIND       PRES   REMARKS
ALPINE         CLOUDY    75  34  22 SW7       29.84R
ANDREWS        FAIR      68  37  32 NE8       29.72R
ARTESIA        PTSUNNY   64  32  29 CALM      29.71S
BIG SPRING     MOSUNNY   70  47  44 NE9       29.70S
CARLSBAD       SUNNY     69  34  27 VRB3      29.70R
DRYDEN           N/A     72  64  76 CALM      29.66S
FORT STOCKTON  SUNNY     80  41  24 NW12      29.70R
GUAD PASS      CLOUDY    67  40  37 W37       29.78F
HOBBS          SUNNY     64  30  27 E9        29.72S
MARFA          SUNNY     73  36  25 W8        29.84R
MIDLAND AIRPK  MOSUNNY   72  41  32 NE8       29.70S
MIDLAND INTL   MOSUNNY   73  39  29 NE13      29.69R
ODESSA         SUNNY     72  37  28 E9        29.71R
PECOS          MOSUNNY   72  38  29 NE7       29.70S
PRESIDIO       FAIR      78  37  22 CALM      29.74R
SEMINOLE       SUNNY     66  36  33 E5        29.72S
SNYDER         SUNNY    N/A N/A N/A NE9       29.67S
WINK           SUNNY     72  34  24 E8        29.69R
$$
...OTHER STATIONS IN TEXAS...

CITY           SKY/WX    TMP DP  RH WIND       PRES   REMARKS
ABILENE        CLOUDY    66  52  60 N13       29.66R
AMARILLO       SUNNY     59  43  55 NW9       29.69S
AUSTIN         PTSUNNY   79  69  71 S12       29.64S
BROWNSVILLE    SUNNY     85  74  69 S26G36    29.62R
CORPUS CHRISTI PTSUNNY   81  74  79 SE22      29.61S
DALLAS FTW     CLOUDY    75  66  73 S13       29.62R
DEL RIO        CLOUDY    75  69  81 SE6       29.61R
EL PASO        CLOUDY    70  34  26 W26G35    29.74R
HOUSTON INT    PTSUNNY   82  71  69 S16       29.68S
LUBBOCK        PTSUNNY   63  45  51 E6        29.69R
SAN ANGELO     MOSUNNY   77  63  61 S9        29.63R
SAN ANTONIO    PTSUNNY   76  68  76 S14G21    29.64F
WACO           SUNNY     78  67  68 S20G26    29.62S
WICHITA FALLS  NOT AVBL
$$
...OTHER LOCATIONS IN NEW MEXICO...

CITY           SKY/WX    TMP DP  RH WIND       PRES   REMARKS
ALAMOGORDO     CLOUDY    66  37  34 S10       29.73S
ALBUQUERQUE    CLOUDY    46  28  49 N9        29.75S
CANNON AFB     CLOUDY    60  28  29 NE6       29.69S
CLOVIS         CLOUDY    61  30  31 E6        29.69S
HOLLOMAN AFB   CLOUDY    69  38  31 SW25G31   29.75S
ROSWELL        CLOUDY    62  30  29 W3        29.72S
RUIDOSO        CLOUDY    57  32  38 SW10      29.79F
SANTA FE       LGT SNOW  35  34  96 N16G24    29.76R FOG     WCI  25
TRUTH OR CONSE PTSUNNY   67  36  31 W14G23    29.69F
TUCUMCARI      SUNNY     59  34  39 CALM      29.65F
$$



USA.gov is the U.S. government's official web portal to all federal, state and local government web resources and services.